Preview of NWS' New Version of Forecast
This preview is not operational and should not be used for support decisions.

Regional Weather Roundup (RWR)

Issued by National Weather Service (NWS)

                            
000
ASUS43 KLSX 211657
RWRMO 

WEATHER SUMMARY FOR MISSOURI
NATIONAL WEATHER SERVICE SPRINGFIELD MO
1200 PM CDT SUN APR 21 2019

NOTE: "FAIR" INDICATES FEW OR NO CLOUDS BELOW 12,000 FEET WITH NO
       SIGNIFICANT WEATHER AND/OR OBSTRUCTIONS TO VISIBILITY.
       CURRENT SKY AND/OR WEATHER CONDITIONS ARE NOT AVAILABLE FOR
       CHILLICOTHE AND FARMINGTON.

MOZ001>031-035>038-043-044-053-054-211800-
...NORTHERN AND WESTERN MISSOURI...
  
CITY           SKY/WX    TMP DP  RH WIND       PRES   REMARKS
KANSAS CTY INT MOSUNNY   79  51  37 S23G31    29.81R                  
LEE'S SUMMIT   SUNNY     76  49  38 S26G39    29.84F                  
ST JOSEPH      MOSUNNY   75  54  47 S16G22    29.79S                  
CHILLICOTHE      N/A     78  51  38 S12G24    29.87S                  
     
$$
MOZ066>068-077>081-088>096-101>105-211800-
...SOUTHWEST MISSOURI...
  
CITY           SKY/WX    TMP DP  RH WIND       PRES   REMARKS
SPRINGFIELD    SUNNY     76  50  40 S17G23    29.98F                  
JOPLIN         SUNNY     77  51  40 S24G32    29.94F                  
BRANSON        SUNNY     75  48  38 SE7       30.02F                  
               
$$
MOZ032>034-039>042-045>050-055>058-069>072-211800-
...CENTRAL MISSOURI...  
  
CITY           SKY/WX    TMP DP  RH WIND       PRES   REMARKS
COLUMBIA       NOT AVBL                                               
JEFFERSON CITY SUNNY     78  44  29 S15G22    29.96F                  
ROLLA          SUNNY     76  44  32 S13       30.02S                  
SEDALIA        SUNNY     74  51  44 S15G25    29.93F                  
WARRENSBURG    MOSUNNY   77  48  36 S20G30    29.89F                  
               
$$
MOZ051-052-059>065-211800-
...EAST CENTRAL MISSOURI...
  
CITY           SKY/WX    TMP DP  RH WIND       PRES   REMARKS
ST LOUIS INTL  MOSUNNY   74  38  27 S12       30.04R                  
                   
$$
MOZ072>076-082>087-097>100-106>115-211800-
...SOUTH CENTRAL AND SOUTHEAST MISSOURI...
  
CITY           SKY/WX    TMP DP  RH WIND       PRES   REMARKS
CAPE GIRARDEAU FAIR      71  47  42 S7        30.08S                  
POPLAR BLUFF   FAIR      69  53  56 VRB5      30.08R                  
WEST PLAINS    SUNNY     73  41  31 S10       30.06S                  
                                       
$$